Date,TemperatureHighF,TemperatureAvgF,TemperatureLowF,DewpointHighF,DewpointAvgF,DewpointLowF,HumidityHigh,HumidityAvg,HumidityLow,PressureMaxIn,PressureMinIn,WindSpeedMaxMPH,WindSpeedAvgMPH,GustSpeedMaxMPH,PrecipitationSumIn
2013-2-1,38.8,31.1,25.1,30.0,15.3,6.0,88,54,33,30.39,29.92,27,6,36,0.00
2013-2-2,41.1,29.2,18.1,30.0,16.6,10.0,89,62,36,30.43,30.10,9,1,12,0.00
2013-2-3,47.9,39.4,31.3,34.0,29.2,22.0,94,68,47,30.13,29.90,22,8,33,0.01
2013-2-4,50.7,36.5,23.3,30.0,23.9,19.0,85,62,41,30.17,30.02,11,1,19,0.00
2013-2-5,59.9,41.6,27.5,40.0,30.7,25.0,92,68,36,30.05,29.93,14,2,19,0.00
2013-2-6,61.6,44.8,31.6,39.0,29.8,25.0,90,61,26,30.21,30.00,9,2,13,0.00
2013-2-7,43.4,37.0,31.4,39.0,32.6,26.0,96,84,66,30.33,30.14,4,0,8,0.60
2013-2-8,56.6,44.5,37.7,48.0,38.4,31.0,97,82,45,30.13,29.91,22,6,28,0.01
2013-2-9,58.5,41.0,25.9,31.0,25.5,21.0,88,59,23,30.35,30.09,12,3,16,0.00
2013-2-10,54.1,39.7,28.9,40.0,28.4,25.0,91,68,36,30.47,30.29,7,1,13,0.13
2013-2-11,57.6,47.9,40.9,56.0,44.7,33.0,99,91,42,30.33,29.98,8,1,13,0.10
2013-2-12,56.5,50.3,40.9,40.0,30.7,25.0,74,48,32,30.12,29.93,11,2,14,0.00
2013-2-13,50.5,43.4,41.3,45.0,41.0,34.0,98,92,57,30.03,29.68,17,2,23,0.24
2013-2-14,53.5,40.4,26.6,36.0,31.3,25.0,94,72,48,30.09,29.81,14,3,24,0.00
2013-2-15,60.2,40.9,26.0,40.0,31.8,25.0,96,75,36,30.14,29.95,13,2,16,0.00
2013-2-16,46.2,36.8,30.3,37.0,27.5,16.0,93,69,48,30.03,29.86,14,3,22,0.05
2013-2-17,38.9,30.7,24.2,19.0,11.7,7.0,64,46,32,30.26,30.00,23,9,29,0.00
2013-2-18,51.5,34.7,18.7,28.0,19.6,11.0,85,56,38,30.42,30.26,9,2,12,0.00
2013-2-19,53.2,41.5,36.5,45.0,31.6,19.0,95,70,35,30.27,29.88,22,3,30,0.08
2013-2-20,53.0,41.5,25.3,20.0,14.1,8.0,68,35,19,30.13,30.01,20,6,32,0.00
2013-2-21,56.2,38.2,20.8,26.0,19.2,9.0,84,50,27,30.25,30.12,7,1,9,0.00
2013-2-22,47.5,37.3,34.4,37.0,34.7,26.0,97,91,42,30.34,30.19,3,1,6,0.39
2013-2-23,47.7,39.9,35.2,44.0,38.5,34.0,98,95,87,30.21,29.87,5,1,9,0.25
2013-2-24,62.1,48.2,35.6,43.0,35.0,23.0,99,67,25,30.04,29.87,15,4,20,0.01
2013-2-25,47.3,36.3,28.7,30.0,28.1,26.0,92,73,48,30.22,30.04,8,2,10,0.00
2013-2-26,38.2,35.2,31.9,37.0,32.0,25.0,97,89,62,30.18,29.63,11,2,16,1.70
2013-2-27,56.1,43.6,32.7,41.0,36.9,32.0,99,80,53,29.83,29.68,14,3,16,0.01
2013-2-28,45.8,41.3,35.6,39.0,29.3,26.0,90,62,52,29.91,29.74,20,8,24,0.00